Nampa, ID

8:18 AM MDT on July 23, 2017 (GMT -0600)
Nampa

Weather History for KMAN - February, 2012

Change the Weather History Date:

Wednesday, February 22, 2012

  Actual Average (KBOI) Record (KBOI)
Temperature  
Mean Temperature 50 °F -  
Max Temperature 57 °F 47 °F 67 °F (1958)
Min Temperature 44 °F 29 °F 4 °F (1894)
Degree Days  
Heating Degree Days 14    
Moisture  
Dew Point 36 °F    
Average Humidity 53    
Maximum Humidity 87    
Minimum Humidity 38    
Precipitation  
Precipitation 0.01 in - - ()
Sea Level Pressure  
Sea Level Pressure 30.03 in    
Wind  
Wind Speed 17 mph (WNW)    
Max Wind Speed 29 mph    
Max Gust Speed 40 mph    
Visibility 10 miles    
Events      
Averages and records for this station are not official NWS values.
T = Trace of Precipitation, MM = Missing Value Source: NWS Daily Summary

Daily Weather History Graph

Daily Weather History Graph

Search for Another Location

Airport or City:

Trip Planner

Search our weather history database for the weather conditions in past years. The results will help you decide how hot, cold, wet, or windy it might be!

Date:

Astronomy

Feb. 22, 2012 Rise Set
Actual Time 7:34 AM MST 6:25 PM MST
Civil Twilight 7:05 AM MST 6:54 PM MST
Nautical Twilight 6:32 AM MST 7:27 PM MST
Astronomical Twilight 5:59 AM MST 8:00 PM MST
Moon 7:31 AM MST (2/22) 7:40 PM MST (2/22)
Length of Visible Light 11h 48m
Length of Day
10h 50m
New Moon, 1% of the Moon is Illuminated
Feb 22
New Moon
Feb 29
First Quarter
Mar 8
Full
Mar 14
Last Quarter
Mar 22
New

Hourly Weather History & Observations

Time (MST) Temp. Windchill Dew Point Humidity Pressure Visibility Wind Dir Wind Speed Gust Speed Precip Events Conditions
12:15 AM 53.6 °F - 39.2 °F 58% 30.14 in 10.0 mi West 13.8 mph 23.0 mph N/A   Overcast
12:35 AM 53.6 °F - 39.2 °F 58% 30.14 in 10.0 mi West 18.4 mph 27.6 mph N/A   Mostly Cloudy
12:55 AM 53.6 °F - 39.2 °F 58% 30.14 in 10.0 mi West 18.4 mph 31.1 mph N/A   Partly Cloudy
1:15 AM 53.6 °F - 39.2 °F 58% 30.14 in 10.0 mi West 16.1 mph 25.3 mph N/A   Partly Cloudy
1:35 AM 53.6 °F - 39.2 °F 58% 30.13 in 10.0 mi West 15.0 mph 23.0 mph N/A   Mostly Cloudy
1:55 AM 53.6 °F - 39.2 °F 58% 30.13 in 10.0 mi West 16.1 mph 24.2 mph N/A   Mostly Cloudy
2:15 AM 53.6 °F - 39.2 °F 58% 30.12 in 10.0 mi West 16.1 mph 25.3 mph N/A   Mostly Cloudy
2:35 AM 53.6 °F - 37.4 °F 54% 30.13 in 10.0 mi West 19.6 mph 24.2 mph N/A   Scattered Clouds
2:55 AM 53.6 °F - 39.2 °F 58% 30.12 in 10.0 mi West 16.1 mph 23.0 mph N/A   Mostly Cloudy
3:15 AM 53.6 °F - 37.4 °F 54% 30.11 in 10.0 mi West 18.4 mph 24.2 mph N/A   Mostly Cloudy
3:55 AM 53.6 °F - 37.4 °F 54% 30.12 in 10.0 mi West 15.0 mph - N/A   Overcast
4:15 AM 53.6 °F - 37.4 °F 54% 30.10 in 10.0 mi West 17.3 mph 25.3 mph N/A   Overcast
4:35 AM 53.6 °F - 37.4 °F 54% 30.10 in 10.0 mi West 13.8 mph 23.0 mph N/A   Overcast
4:55 AM 53.6 °F - 37.4 °F 54% 30.10 in 10.0 mi West 16.1 mph 21.9 mph N/A   Overcast
5:55 AM 53.6 °F - 37.4 °F 54% 30.10 in 10.0 mi West 13.8 mph 20.7 mph N/A   Clear
6:15 AM 53.6 °F - 37.4 °F 54% 30.10 in 10.0 mi West 10.4 mph 21.9 mph N/A   Clear
6:55 AM 53.6 °F - 35.6 °F 51% 30.08 in 10.0 mi West 18.4 mph 21.9 mph N/A   Clear
7:15 AM 53.6 °F - 35.6 °F 51% 30.08 in 10.0 mi West 16.1 mph 25.3 mph N/A   Mostly Cloudy
7:35 AM 53.6 °F - 35.6 °F 51% 30.08 in 10.0 mi West 16.1 mph 26.5 mph N/A   Overcast
7:55 AM 53.6 °F - 35.6 °F 51% 30.08 in 10.0 mi West 19.6 mph 26.5 mph N/A   Overcast
8:15 AM 53.6 °F - 35.6 °F 51% 30.07 in 10.0 mi West 16.1 mph 25.3 mph N/A   Overcast
8:35 AM 53.6 °F - 35.6 °F 51% 30.07 in 10.0 mi West 15.0 mph 24.2 mph N/A   Overcast
8:55 AM 55.4 °F - 33.8 °F 44% 30.06 in 10.0 mi West 15.0 mph 34.5 mph N/A   Overcast
9:15 AM 55.4 °F - 33.8 °F 44% 30.06 in 10.0 mi West 19.6 mph 27.6 mph N/A   Overcast
9:55 AM 55.4 °F - 33.8 °F 44% 30.04 in 10.0 mi West 19.6 mph 31.1 mph N/A   Overcast
10:15 AM 55.4 °F - 33.8 °F 44% 30.03 in 10.0 mi West 20.7 mph 32.2 mph N/A   Overcast
10:35 AM 55.4 °F - 32.0 °F 41% 30.03 in 10.0 mi West 20.7 mph 33.4 mph N/A   Overcast
10:55 AM 55.4 °F - 32.0 °F 41% 30.01 in 10.0 mi West 24.2 mph 40.3 mph N/A   Mostly Cloudy
11:15 AM 57.2 °F - 32.0 °F 38% 30.01 in 10.0 mi West 25.3 mph 40.3 mph N/A   Mostly Cloudy
11:35 AM 55.4 °F - 32.0 °F 41% 30.00 in 10.0 mi West 19.6 mph 34.5 mph N/A   Overcast
11:55 AM 55.4 °F - 32.0 °F 41% 30.00 in 10.0 mi West 16.1 mph 25.3 mph N/A   Overcast
12:15 PM 55.4 °F - 32.0 °F 41% 29.98 in 10.0 mi West 20.7 mph 31.1 mph N/A   Overcast
12:35 PM 57.2 °F - 32.0 °F 38% 29.98 in 10.0 mi West 23.0 mph 32.2 mph N/A   Overcast
12:55 PM 57.2 °F - 32.0 °F 38% 29.97 in 10.0 mi West 19.6 mph 27.6 mph N/A   Overcast
1:15 PM 57.2 °F - 32.0 °F 38% 29.96 in 10.0 mi West 20.7 mph 24.2 mph N/A   Overcast
1:35 PM 57.2 °F - 32.0 °F 38% 29.95 in 10.0 mi West 24.2 mph 34.5 mph N/A   Overcast
1:55 PM 57.2 °F - 33.8 °F 41% 29.95 in 10.0 mi West 20.7 mph 29.9 mph N/A   Mostly Cloudy
2:15 PM 55.4 °F - 35.6 °F 47% 29.94 in 10.0 mi West 25.3 mph 35.7 mph N/A   Mostly Cloudy
2:35 PM 55.4 °F - 35.6 °F 47% 29.94 in 10.0 mi West 21.9 mph 38.0 mph N/A   Mostly Cloudy
2:55 PM 55.4 °F - 37.4 °F 51% 29.93 in 10.0 mi WNW 28.8 mph 36.8 mph N/A   Mostly Cloudy
3:15 PM 53.6 °F - 41.0 °F 62% 29.95 in 7.0 mi North 12.7 mph 29.9 mph N/A   Mostly Cloudy
3:35 PM 48.2 °F - 44.6 °F 87% 29.95 in 4.0 mi North 11.5 mph - 0.01 in   Scattered Clouds
3:55 PM 50.0 °F - 44.6 °F 82% 29.95 in 7.0 mi North 6.9 mph - 0.01 in   Partly Cloudy
4:15 PM 50.0 °F - 44.6 °F 82% 29.95 in 10.0 mi North 3.5 mph - N/A   Partly Cloudy
4:35 PM 50.0 °F - 42.8 °F 76% 29.95 in 10.0 mi Calm Calm - N/A   Mostly Cloudy
4:55 PM 50.0 °F - 44.6 °F 82% 29.94 in 10.0 mi Calm Calm - N/A   Overcast
5:15 PM 51.8 °F - 39.2 °F 62% 29.93 in 10.0 mi NW 10.4 mph - N/A   Mostly Cloudy
5:35 PM 53.6 °F - 35.6 °F 51% 29.94 in 10.0 mi NW 24.2 mph 32.2 mph N/A   Mostly Cloudy
5:55 PM 48.2 °F - 33.8 °F 58% 29.96 in 10.0 mi NNW 18.4 mph 33.4 mph N/A   Mostly Cloudy
6:15 PM 46.4 °F 39.8 °F 32.0 °F 57% 29.96 in 10.0 mi North 16.1 mph 28.8 mph N/A   Overcast
6:35 PM 46.4 °F 39.8 °F 32.0 °F 57% 29.98 in 10.0 mi North 16.1 mph 24.2 mph N/A   Overcast
6:55 PM 44.6 °F 38.4 °F 28.4 °F 53% 30.00 in 10.0 mi NNW 12.7 mph 21.9 mph N/A   Scattered Clouds
7:15 PM 44.6 °F 38.4 °F 26.6 °F 49% 30.01 in 10.0 mi North 12.7 mph 19.6 mph N/A   Partly Cloudy
7:35 PM 44.6 °F 39.2 °F 24.8 °F 46% 30.02 in 10.0 mi NNW 10.4 mph 21.9 mph N/A   Mostly Cloudy
7:55 PM 41.0 °F 35.2 °F 24.8 °F 53% 30.03 in 10.0 mi NNW 9.2 mph - N/A   Overcast
8:15 PM 41.0 °F 33.5 °F 21.2 °F 45% 30.03 in 10.0 mi NNW 13.8 mph 19.6 mph N/A   Scattered Clouds
8:35 PM 41.0 °F 33.5 °F 19.4 °F 42% 30.03 in 10.0 mi North 13.8 mph 20.7 mph N/A   Clear
8:55 PM 39.2 °F 32.0 °F 17.6 °F 42% 30.05 in 10.0 mi North 11.5 mph 17.3 mph N/A   Clear
9:15 PM 39.2 °F 32.0 °F 19.4 °F 45% 30.06 in 10.0 mi North 11.5 mph - N/A   Clear
9:35 PM 39.2 °F 31.6 °F 19.4 °F 45% 30.08 in 10.0 mi North 12.7 mph - N/A   Clear
9:55 PM 39.2 °F 33.6 °F 19.4 °F 45% 30.10 in 10.0 mi NW 8.1 mph 16.1 mph N/A   Scattered Clouds
10:15 PM 39.2 °F 33.6 °F 19.4 °F 45% 30.11 in 10.0 mi NW 8.1 mph - N/A   Partly Cloudy
10:55 PM 37.4 °F 32.1 °F 21.2 °F 52% 30.12 in 10.0 mi NW 6.9 mph - N/A   Mostly Cloudy
11:15 PM 37.4 °F 29.8 °F 21.2 °F 52% 30.13 in 10.0 mi NNW 11.5 mph - N/A   Overcast
11:55 PM 35.6 °F 30.7 °F 21.2 °F 56% 30.15 in 10.0 mi NNW 5.8 mph - N/A   Scattered Clouds